CW3833 Weather Reports


time (UTC)temp
C
wind
direction
speed
KPH
gust
KPH
rain 1hr
cm
rain 24hr
cm
rain mn
cm
humidity
%
barometer
mb
20260906213103 20 311 1.6 11.3 0.00 0.00 0.00 68 1019.3
20260906211608 19 321 1.6 8.0 0.00 0.00 0.00 71 1019.3
20260906210136 20 69 1.6 11.3 0.00 0.00 0.00 67 1019.3
20260906204603 20 294 1.6 12.9 0.00 0.00 0.00 66 1019.1
20260906203107 21 296 1.6 12.9 0.00 0.00 0.00 66 1019.1
20260906201607 21 65 3.2 9.7 0.00 0.00 0.00 68 1019.0
20260906200111 20 226 3.2 11.3 0.00 0.00 0.00 66 1019.1
20260906194604 20 319 3.2 9.7 0.00 0.00 0.00 67 1019.1
20260906193103 20 67 3.2 12.9 0.00 0.00 0.00 68 1019.1
20260906191607 21 54 3.2 12.9 0.00 0.00 0.00 67 1018.8
20260906190110 21 0 4.8 14.5 0.00 0.00 0.00 71 1018.8
20260906184628 20 345 3.2 9.7 0.00 0.00 0.00 71 1018.8
20260906183107 20 5 1.6 11.3 0.00 0.00 0.00 70 1018.9
20260906181607 20 315 3.2 9.7 0.00 0.00 0.00 69 1018.9
20260906180107 20 43 3.2 17.7 0.00 0.00 0.00 69 1018.9
20260906174603 20 55 1.6 12.9 0.00 0.00 0.00 71 1019.0
20260906173123 20 20 3.2 9.7 0.00 0.00 0.00 70 1018.9
20260906171608 20 123 1.6 9.7 0.00 0.00 0.00 70 1019.1
20260906170112 20 36 4.8 12.9 0.00 0.00 0.00 72 1019.1
20260906164604 20 319 3.2 12.9 0.00 0.00 0.00 71 1018.9
20260906163105 20 0 3.2 16.1 0.00 0.00 0.00 71 1018.9
20260906161610 20 328 3.2 16.1 0.00 0.00 0.00 70 1018.8
20260906160123 20 77 4.8 14.5 0.00 0.00 0.00 73 1018.8
20260906154606 19 55 3.2 14.5 0.00 0.00 0.00 74 1018.7
20260906153105 19 58 3.2 12.9 0.00 0.00 0.00 75 1018.7
20260906151607 18 0 1.6 12.9 0.00 0.00 0.00 75 1018.7
20260906150118 18 20 3.2 9.7 0.00 0.00 0.00 75 1018.7
20260906144611 17 34 3.2 9.7 0.00 0.00 0.00 76 1018.6
20260906143106 17 346 0.0 9.7 0.00 0.00 0.00 77 1018.7
20260906141630 17 26 1.6 16.1 0.00 0.00 0.00 78 1018.6
20260906140116 17 0 3.2 9.7 0.00 0.00 0.00 80 1018.4
20260906134630 16 47 1.6 6.4 0.00 0.00 0.00 80 1018.2
20260906133116 16 0 0.0 8.0 0.00 0.00 0.00 80 1018.2
20260906131607 16 67 3.2 8.0 0.00 0.00 0.00 80 1018.2
20260906130148 16 36 0.0 12.9 0.00 0.00 0.00 80 1018.1
20260906124610 16 0 3.2 14.5 0.00 0.00 0.00 80 1017.9
20260906123105 16 311 1.6 6.4 0.00 0.00 0.00 80 1018.0
20260906121610 16 0 0.0 6.4 0.00 0.00 0.00 80 1017.8
20260906120112 16 46 1.6 6.4 0.00 0.00 0.00 80 1017.8
20260906114612 16 0 0.0 4.8 0.00 0.00 0.00 81 1017.5
20260906113109 15 0 0.0 0.0 0.00 0.00 0.00 81 1017.3
20260906111607 15 0 0.0 0.0 0.00 0.00 0.00 80 1017.2
20260906110106 14 0 0.0 0.0 0.00 0.00 0.00 80 1017.2
20260906104605 14 0 0.0 0.0 0.00 0.00 0.00 80 1017.1
20260906103112 14 0 0.0 0.0 0.00 0.00 0.00 80 1017.0
20260906101605 14 0 0.0 0.0 0.00 0.00 0.00 80 1016.7
20260906100107 14 0 0.0 0.0 0.00 0.00 0.00 80 1016.5
20260906094604 14 0 0.0 0.0 0.00 0.00 0.00 80 1016.5
20260906093111 14 0 0.0 0.0 0.00 0.00 0.00 80 1016.5
20260906091606 15 0 0.0 0.0 0.00 0.00 0.00 79 1016.4
20260906090107 15 0 0.0 0.0 0.00 0.00 0.00 79 1016.1
20260906084609 15 0 0.0 0.0 0.00 0.00 0.00 79 1015.9
20260906083105 15 0 0.0 0.0 0.00 0.00 0.00 79 1015.7
20260906081604 15 0 0.0 0.0 0.00 0.00 0.00 79 1015.8
20260906080106 15 0 0.0 0.0 0.00 0.00 0.00 79 1015.8
20260906074605 15 0 0.0 0.0 0.00 0.00 0.00 79 1015.8
20260906073105 15 0 0.0 0.0 0.00 0.00 0.00 79 1015.8
20260906071606 16 0 0.0 0.0 0.00 0.00 0.00 79 1015.8
20260906070105 16 0 0.0 0.0 0.00 0.00 0.00 79 1015.8
20260906064605 16 0 0.0 0.0 0.00 0.00 0.00 79 1015.9
20260906063104 16 0 0.0 1.6 0.00 0.00 0.00 79 1015.9
20260906061626 16 0 0.0 3.2 0.00 0.00 0.00 79 1016.0
20260906060123 16 0 0.0 0.0 0.00 0.00 0.00 79 1015.9
20260906054604 16 0 0.0 0.0 0.00 0.00 0.00 78 1015.9
20260906053104 16 0 0.0 0.0 0.00 0.00 0.00 79 1016.0
20260906051610 16 0 0.0 0.0 0.00 0.00 0.00 78 1015.9
20260906050106 16 0 0.0 0.0 0.00 0.00 0.00 78 1016.0
20260906044606 16 0 0.0 0.0 0.00 0.00 0.00 78 1015.9
20260906043107 16 0 0.0 0.0 0.00 0.00 0.00 78 1015.9
20260906041619 16 0 0.0 0.0 0.00 0.00 0.00 78 1015.8
20260906040114 16 0 0.0 0.0 0.00 0.00 0.00 78 1015.8
20260906034624 16 0 0.0 0.0 0.00 0.00 0.00 78 1015.7
20260906033107 16 0 0.0 0.0 0.00 0.00 0.00 78 1015.6
20260906031606 16 0 0.0 0.0 0.00 0.00 0.00 78 1015.7
20260906030116 16 0 0.0 0.0 0.00 0.00 0.00 78 1015.6
20260906024608 16 0 0.0 0.0 0.00 0.00 0.00 78 1015.6
20260906023110 16 0 0.0 0.0 0.00 0.00 0.00 78 1015.6
20260906021611 16 0 0.0 0.0 0.00 0.00 0.00 78 1015.5
20260906020107 16 0 0.0 1.6 0.00 0.00 0.00 78 1015.4
20260906014608 16 0 0.0 1.6 0.00 0.00 0.00 78 1015.3
20260906013103 17 0 0.0 1.6 0.00 0.00 0.00 78 1015.2
20260906011607 17 0 0.0 1.6 0.00 0.00 0.00 79 1015.3
20260906010108 17 0 0.0 0.0 0.00 0.00 0.00 79 1015.4
20260906004607 17 0 0.0 0.0 0.00 0.00 0.00 80 1015.2
20260906003104 17 0 0.0 0.0 0.00 0.00 0.00 80 1015.0
20260906001606 17 0 0.0 1.6 0.00 0.00 0.00 81 1015.2
20260906000111 17 0 0.0 0.0 0.00 0.00 0.00 81 1015.0
20260905234606 18 0 0.0 0.0 0.00 0.00 0.00 81 1015.0
20260905233120 18 0 0.0 0.0 0.00 0.00 0.00 80 1015.1
20260905231608 18 0 0.0 1.6 0.00 0.00 0.00 79 1014.9
20260905230109 20 0 0.0 6.4 0.00 0.00 0.00 77 1014.9
20260905224607 20 43 0.0 9.7 0.00 0.00 0.00 75 1015.1
20260905223107 21 53 1.6 4.8 0.00 0.00 0.00 72 1014.9
20260905221608 21 0 0.0 8.0 0.00 0.00 0.00 70 1014.8
20260905220109 22 61 1.6 11.3 0.00 0.00 0.00 70 1014.6
20260905214606 22 23 1.6 12.9 0.00 0.00 0.00 69 1014.3
20260905213113 22 57 1.6 8.0 0.00 0.00 0.00 68 1014.4